SKW5238 KLAX-KSMF

Flight info

Callsign SKW5238
Flight time N/A
Altitude 36000
Route LADYJ4 CSTRO NURAY SUUTR4
Aircraft E75L/M-SDE3GILORVW/S

Departure

Time 2026-04-23 03:29
Airport Los Angeles International Airport (KLAX)

Arrival

Time N/A
Airport Sacramento International Airport (KSMF)
Time Latitude Longitude Altitude Speed Heading
2026-04-23 02:54 33.94061 -118.39768 122 ft 0 kts 82°
2026-04-23 03:18 33.94061 -118.39769 122 ft 1 kts 82°
2026-04-23 03:18 33.94059 -118.39786 122 ft 2 kts 82°
2026-04-23 03:19 33.94060 -118.39805 122 ft 2 kts 114°
2026-04-23 03:19 33.94069 -118.39819 122 ft 2 kts 141°
2026-04-23 03:19 33.94081 -118.39827 122 ft 0 kts 167°
2026-04-23 03:19 33.94088 -118.39828 122 ft 1 kts 174°
2026-04-23 03:20 33.94089 -118.39828 122 ft 0 kts 173°
2026-04-23 03:22 33.94085 -118.39827 122 ft 1 kts 176°
2026-04-23 03:22 33.94054 -118.39828 122 ft 6 kts 180°
2026-04-23 03:22 33.94000 -118.39823 120 ft 10 kts 172°
2026-04-23 03:23 33.93931 -118.39793 119 ft 11 kts 139°
2026-04-23 03:23 33.93910 -118.39698 116 ft 13 kts 84°
2026-04-23 03:23 33.93924 -118.39551 112 ft 20 kts 83°
2026-04-23 03:23 33.93942 -118.39377 110 ft 22 kts 83°
2026-04-23 03:24 33.93962 -118.39187 108 ft 23 kts 83°
2026-04-23 03:24 33.93982 -118.38986 107 ft 24 kts 83°
2026-04-23 03:24 33.94004 -118.38775 105 ft 24 kts 83°
2026-04-23 03:24 33.94024 -118.38575 104 ft 23 kts 83°
2026-04-23 03:25 33.94044 -118.38385 103 ft 23 kts 83°
2026-04-23 03:25 33.94064 -118.38187 102 ft 23 kts 83°
2026-04-23 03:25 33.94079 -118.38039 101 ft 9 kts 94°
2026-04-23 03:25 33.94074 -118.38021 101 ft 0 kts 121°
2026-04-23 03:27 33.94073 -118.38020 101 ft 1 kts 123°
2026-04-23 03:27 33.94040 -118.37999 100 ft 9 kts 169°
2026-04-23 03:28 33.93980 -118.38065 100 ft 18 kts 263°
2026-04-23 03:28 33.93935 -118.38494 104 ft 87 kts 263°
2026-04-23 03:28 33.93835 -118.39482 117 ft 145 kts 263°
2026-04-23 03:28 33.93705 -118.40759 594 ft 160 kts 263°
2026-04-23 03:29 33.93554 -118.42052 1362 ft 159 kts 262°
2026-04-23 03:29 33.93411 -118.43421 1812 ft 177 kts 264°
2026-04-23 03:29 33.93260 -118.45032 2053 ft 210 kts 264°
2026-04-23 03:29 33.93095 -118.46919 2282 ft 244 kts 265°
2026-04-23 03:30 33.92922 -118.49007 2796 ft 262 kts 265°
2026-04-23 03:30 33.92738 -118.51220 3627 ft 267 kts 266°
2026-04-23 03:30 33.92556 -118.53421 4593 ft 264 kts 266°
2026-04-23 03:30 33.92377 -118.55585 4913 ft 263 kts 266°
2026-04-23 03:31 33.92195 -118.57786 5121 ft 276 kts 266°
2026-04-23 03:31 33.92008 -118.60085 5926 ft 278 kts 269°
2026-04-23 03:31 33.92381 -118.62283 6899 ft 268 kts 302°
2026-04-23 03:31 33.93645 -118.63802 7790 ft 262 kts 325°
2026-04-23 03:32 33.95206 -118.64951 7937 ft 266 kts 328°
2026-04-23 03:32 33.96809 -118.66055 7966 ft 265 kts 328°
2026-04-23 03:32 33.98423 -118.67139 7981 ft 261 kts 330°
2026-04-23 03:32 34.00256 -118.67619 8114 ft 285 kts 358°
2026-04-23 03:33 34.02235 -118.67520 8798 ft 285 kts 359°
2026-04-23 03:33 34.04182 -118.67406 9621 ft 281 kts 358°
2026-04-23 03:33 34.06131 -118.67288 10381 ft 279 kts 357°
2026-04-23 03:33 34.08080 -118.67100 10975 ft 287 kts
2026-04-23 03:34 34.10077 -118.66640 11461 ft 297 kts
2026-04-23 03:34 34.12120 -118.66159 11888 ft 308 kts
2026-04-23 03:34 34.14247 -118.65655 12390 ft 316 kts
2026-04-23 03:34 34.16430 -118.65138 12976 ft 321 kts
2026-04-23 03:35 34.18634 -118.64615 13658 ft 323 kts
2026-04-23 03:35 34.20840 -118.64093 14278 ft 327 kts
2026-04-23 03:35 34.23075 -118.63563 14925 ft 330 kts
2026-04-23 03:35 34.25324 -118.63497 15465 ft 320 kts 343°
2026-04-23 03:36 34.27515 -118.63969 16062 ft 322 kts 342°
2026-04-23 03:36 34.29720 -118.64465 16631 ft 325 kts 342°
2026-04-23 03:36 34.31946 -118.64969 17198 ft 329 kts 342°
2026-04-23 03:36 34.34201 -118.65482 17742 ft 332 kts 341°
2026-04-23 03:37 34.36492 -118.66003 18316 ft 334 kts 341°
2026-04-23 03:37 34.38769 -118.66523 18818 ft 337 kts 341°
2026-04-23 03:37 34.41068 -118.67047 19387 ft 338 kts 341°
2026-04-23 03:37 34.43423 -118.67561 19874 ft 343 kts 342°
2026-04-23 03:38 34.45770 -118.68018 20360 ft 346 kts 342°
2026-04-23 03:38 34.48150 -118.68481 20908 ft 346 kts 342°
2026-04-23 03:38 34.50537 -118.68947 21354 ft 349 kts 341°
2026-04-23 03:38 34.52934 -118.69415 21789 ft 352 kts 342°
2026-04-23 03:39 34.55359 -118.69888 22266 ft 353 kts 341°
2026-04-23 03:39 34.57776 -118.70361 22732 ft 355 kts 341°
2026-04-23 03:39 34.60209 -118.70836 23213 ft 355 kts 341°
2026-04-23 03:39 34.62655 -118.71315 23614 ft 357 kts 341°
2026-04-23 03:40 34.65120 -118.71798 24010 ft 360 kts 341°
2026-04-23 03:40 34.67597 -118.72283 24393 ft 362 kts 341°
2026-04-23 03:40 34.70114 -118.72778 24740 ft 366 kts 341°
2026-04-23 03:40 34.72515 -118.73582 25047 ft 353 kts 325°
2026-04-23 03:41 34.74663 -118.75002 25433 ft 352 kts 323°
2026-04-23 03:41 34.76774 -118.76438 25839 ft 352 kts 322°
2026-04-23 03:41 34.78934 -118.77918 26126 ft 356 kts 322°
2026-04-23 03:41 34.81083 -118.79391 26455 ft 359 kts 322°
2026-04-23 03:42 34.83281 -118.80900 26801 ft 361 kts 322°
2026-04-23 03:42 34.85454 -118.82392 27149 ft 362 kts 322°
2026-04-23 03:42 34.87667 -118.83914 27501 ft 363 kts 322°
2026-04-23 03:42 34.89864 -118.85425 27846 ft 364 kts 322°
2026-04-23 03:43 34.92085 -118.86954 28114 ft 367 kts 322°
2026-04-23 03:43 34.94384 -118.88537 28422 ft 369 kts 322°
2026-04-23 03:43 34.96808 -118.90208 28730 ft 372 kts 322°
2026-04-23 03:43 34.99178 -118.91842 29009 ft 374 kts 321°
2026-04-23 03:44 35.01613 -118.93523 29294 ft 377 kts 322°
2026-04-23 03:44 35.04023 -118.95186 29696 ft 376 kts 321°
2026-04-23 03:44 35.06447 -118.96863 29961 ft 378 kts 322°
2026-04-23 03:44 35.08899 -118.98557 30246 ft 380 kts 322°
2026-04-23 03:45 35.11330 -119.00240 30552 ft 381 kts 321°
2026-04-23 03:45 35.13823 -119.01967 30791 ft 384 kts 322°
2026-04-23 03:45 35.16316 -119.03695 31058 ft 386 kts 321°
2026-04-23 03:45 35.18734 -119.05372 31333 ft 388 kts 321°
2026-04-23 03:46 35.21069 -119.06992 31596 ft 388 kts 321°
2026-04-23 03:46 35.23425 -119.08628 31847 ft 390 kts 321°
2026-04-23 03:46 35.25769 -119.10256 32228 ft 388 kts 321°
2026-04-23 03:46 35.28119 -119.11890 32485 ft 389 kts 321°
2026-04-23 03:47 35.30458 -119.13518 32766 ft 389 kts 321°
2026-04-23 03:47 35.32806 -119.15152 33110 ft 388 kts 321°
2026-04-23 03:47 35.35160 -119.16792 33402 ft 387 kts 321°
2026-04-23 03:47 35.37483 -119.18413 33711 ft 387 kts 321°
2026-04-23 03:48 35.39807 -119.20034 34038 ft 385 kts 321°
2026-04-23 03:48 35.42145 -119.21666 34404 ft 383 kts 320°
2026-04-23 03:48 35.44458 -119.23239 34749 ft 385 kts 324°
2026-04-23 03:48 35.46995 -119.24424 35091 ft 394 kts 331°
2026-04-23 03:49 35.49604 -119.25452 35392 ft 392 kts 330°
2026-04-23 03:49 35.52188 -119.26483 35660 ft 392 kts 330°
2026-04-23 03:49 35.54773 -119.27518 35921 ft 392 kts 330°
2026-04-23 03:49 35.57368 -119.28560 36088 ft 391 kts 330°
2026-04-23 03:50 35.62571 -119.30651 36114 ft 401 kts 330°
2026-04-23 03:50 35.67963 -119.32820 36119 ft 412 kts 331°
2026-04-23 03:51 35.73442 -119.35025 36107 ft 419 kts 331°
2026-04-23 03:51 35.78965 -119.37252 36108 ft 418 kts 331°
2026-04-23 03:52 35.84513 -119.39489 36098 ft 417 kts 331°
2026-04-23 03:52 35.90037 -119.41724 36104 ft 420 kts 331°
2026-04-23 03:53 35.95544 -119.43954 36080 ft 418 kts 331°
2026-04-23 03:53 36.01089 -119.46204 36110 ft 419 kts 331°
2026-04-23 03:54 36.06611 -119.48447 36103 ft 419 kts 331°
2026-04-23 03:54 36.12149 -119.50700 36119 ft 416 kts 331°
2026-04-23 03:55 36.17648 -119.52943 36119 ft 417 kts 331°
2026-04-23 03:55 36.23175 -119.55199 36126 ft 417 kts 331°
2026-04-23 03:56 36.28712 -119.57462 36128 ft 419 kts 331°
2026-04-23 03:56 36.34227 -119.59720 36128 ft 419 kts 331°
2026-04-23 03:57 36.39765 -119.61990 36129 ft 417 kts 331°
2026-04-23 03:57 36.45248 -119.64243 36129 ft 418 kts 331°
2026-04-23 03:58 36.50771 -119.66512 36146 ft 416 kts 330°
2026-04-23 03:58 36.56244 -119.68767 36153 ft 416 kts 330°
2026-04-23 03:59 36.61450 -119.71608 36162 ft 399 kts 317°
2026-04-23 03:59 36.66151 -119.75316 36160 ft 397 kts 318°
2026-04-23 04:00 36.70795 -119.78982 36158 ft 399 kts 318°
2026-04-23 04:00 36.75462 -119.82669 36152 ft 399 kts 318°
2026-04-23 04:01 36.80110 -119.86346 36148 ft 393 kts 318°
2026-04-23 04:01 36.84711 -119.89994 36151 ft 395 kts 318°
2026-04-23 04:02 36.87050 -119.91849 35824 ft 396 kts 318°
2026-04-23 04:02 36.89337 -119.93665 35441 ft 392 kts 318°
2026-04-23 04:02 36.91646 -119.95499 35005 ft 390 kts 318°
2026-04-23 04:02 36.93913 -119.97302 34579 ft 390 kts 318°
2026-04-23 04:03 36.96201 -119.99123 34150 ft 391 kts 319°
2026-04-23 04:03 36.98476 -120.00934 33690 ft 390 kts 319°
2026-04-23 04:03 37.00782 -120.02772 33251 ft 390 kts 319°
2026-04-23 04:03 37.03042 -120.04575 32824 ft 392 kts 319°
2026-04-23 04:04 37.05356 -120.06421 32389 ft 391 kts 319°
2026-04-23 04:04 37.07635 -120.08240 31951 ft 391 kts 319°
2026-04-23 04:04 37.09935 -120.10078 31517 ft 388 kts 319°
2026-04-23 04:04 37.12196 -120.11885 31094 ft 384 kts 319°
2026-04-23 04:05 37.14418 -120.13664 30684 ft 382 kts 319°
2026-04-23 04:05 37.16650 -120.15451 30263 ft 379 kts 319°
2026-04-23 04:05 37.18852 -120.17217 29859 ft 375 kts 319°
2026-04-23 04:05 37.21062 -120.18988 29452 ft 374 kts 319°
2026-04-23 04:06 37.23234 -120.20732 29033 ft 371 kts 319°
2026-04-23 04:06 37.24681 -120.21894 28765 ft 371 kts 319°
2026-04-23 04:06 37.27561 -120.24209 28227 ft 368 kts 319°
2026-04-23 04:06 37.29730 -120.25911 27805 ft 368 kts 321°
2026-04-23 04:07 37.31872 -120.27575 27352 ft 365 kts 321°
2026-04-23 04:07 37.34053 -120.29273 26892 ft 365 kts 321°
2026-04-23 04:07 37.36184 -120.30933 26445 ft 363 kts 321°
2026-04-23 04:07 37.38332 -120.32608 25996 ft 361 kts 321°
2026-04-23 04:08 37.40451 -120.34261 25546 ft 358 kts 321°
2026-04-23 04:08 37.42559 -120.35907 25099 ft 355 kts 322°
2026-04-23 04:08 37.44657 -120.37547 24662 ft 355 kts 322°
2026-04-23 04:08 37.46719 -120.39173 24222 ft 352 kts 320°
2026-04-23 04:09 37.48637 -120.41032 23795 ft 348 kts 316°
2026-04-23 04:09 37.50516 -120.42915 23362 ft 346 kts 316°
2026-04-23 04:09 37.52411 -120.44814 22926 ft 345 kts 317°
2026-04-23 04:09 37.54257 -120.46666 22498 ft 343 kts 317°
2026-04-23 04:10 37.56122 -120.48539 22061 ft 342 kts 317°
2026-04-23 04:10 37.57965 -120.50390 21637 ft 339 kts 317°
2026-04-23 04:10 37.59804 -120.52238 21250 ft 336 kts 317°
2026-04-23 04:10 37.61645 -120.54082 21270 ft 334 kts 318°
2026-04-23 04:11 37.63453 -120.55892 21204 ft 336 kts 317°
2026-04-23 04:11 37.65299 -120.57743 20876 ft 338 kts 318°
2026-04-23 04:11 37.67120 -120.59569 20524 ft 336 kts 318°
2026-04-23 04:11 37.68941 -120.61396 20147 ft 334 kts 319°
2026-04-23 04:12 37.70742 -120.63205 19794 ft 333 kts 319°
2026-04-23 04:12 37.72543 -120.65014 19419 ft 330 kts 318°
2026-04-23 04:12 37.74351 -120.66833 19209 ft 328 kts 319°
2026-04-23 04:12 37.76126 -120.68617 18924 ft 331 kts 319°
2026-04-23 04:13 37.77917 -120.70421 18565 ft 329 kts 319°
2026-04-23 04:13 37.79707 -120.72224 18209 ft 327 kts 319°
2026-04-23 04:13 37.81482 -120.74013 17677 ft 329 kts 320°
2026-04-23 04:13 37.83239 -120.75785 17282 ft 324 kts 320°
2026-04-23 04:14 37.84993 -120.77555 16918 ft 323 kts 321°
2026-04-23 04:14 37.86750 -120.79333 16572 ft 321 kts 321°
2026-04-23 04:14 37.88474 -120.81084 16219 ft 321 kts 321°
2026-04-23 04:14 37.90227 -120.82865 15865 ft 321 kts 321°
2026-04-23 04:15 37.91969 -120.84635 15493 ft 319 kts 322°
2026-04-23 04:15 37.93679 -120.86375 15155 ft 319 kts 322°
2026-04-23 04:15 37.97150 -120.89909 14442 ft 320 kts 323°
2026-04-23 04:16 37.98878 -120.91670 14088 ft 318 kts 324°
2026-04-23 04:16 38.00597 -120.93422 13732 ft 317 kts 324°
2026-04-23 04:16 38.02317 -120.95177 13387 ft 315 kts 324°
2026-04-23 04:16 38.04024 -120.96918 13043 ft 314 kts 324°
2026-04-23 04:17 38.05722 -120.98653 12685 ft 314 kts 323°
2026-04-23 04:17 38.07383 -121.00396 12326 ft 315 kts 318°
2026-04-23 04:17 38.08846 -121.02473 12043 ft 315 kts 313°
2026-04-23 04:17 38.10274 -121.04578 11700 ft 314 kts 313°
2026-04-23 04:18 38.11688 -121.06662 11355 ft 309 kts 313°
2026-04-23 04:18 38.13068 -121.08699 11017 ft 302 kts 313°
2026-04-23 04:18 38.14419 -121.10693 10689 ft 294 kts 313°
2026-04-23 04:18 38.15739 -121.12643 10372 ft 288 kts 313°
2026-04-23 04:19 38.17027 -121.14545 10053 ft 281 kts 313°
2026-04-23 04:19 38.18293 -121.16417 9742 ft 275 kts 313°
2026-04-23 04:19 38.19524 -121.18227 9451 ft 272 kts 313°
2026-04-23 04:19 38.20766 -121.20056 9154 ft 271 kts 313°
2026-04-23 04:20 38.22021 -121.21827 8994 ft 268 kts 317°
2026-04-23 04:20 38.23340 -121.23492 9010 ft 270 kts 317°
2026-04-23 04:20 38.24682 -121.25188 9014 ft 272 kts 317°
2026-04-23 04:20 38.26017 -121.26876 9019 ft 272 kts 317°
2026-04-23 04:21 38.27355 -121.28570 9020 ft 273 kts 317°
2026-04-23 04:21 38.28709 -121.30283 9019 ft 273 kts 317°
2026-04-23 04:21 38.30046 -121.31978 9019 ft 272 kts 317°
2026-04-23 04:21 38.31398 -121.33691 9016 ft 274 kts 317°
2026-04-23 04:22 38.32739 -121.35393 9008 ft 272 kts 317°
2026-04-23 04:22 38.34071 -121.37083 9010 ft 273 kts 317°
2026-04-23 04:22 38.35417 -121.38792 8991 ft 274 kts 317°
2026-04-23 04:22 38.36760 -121.40498 8970 ft 273 kts 316°
2026-04-23 04:23 38.38102 -121.42203 8978 ft 273 kts 317°
2026-04-23 04:23 38.39448 -121.43916 8971 ft 272 kts 316°
2026-04-23 04:23 38.40789 -121.45622 8937 ft 273 kts 317°
2026-04-23 04:23 38.42140 -121.47342 8937 ft 272 kts 317°
2026-04-23 04:24 38.43475 -121.49043 8929 ft 274 kts 317°
2026-04-23 04:24 38.44823 -121.50761 8721 ft 274 kts 317°
2026-04-23 04:24 38.46178 -121.52489 8435 ft 273 kts 317°
2026-04-23 04:24 38.47521 -121.54167 8141 ft 271 kts 321°
2026-04-23 04:25 38.48974 -121.55651 7912 ft 268 kts 323°
2026-04-23 04:25 38.50436 -121.57122 7627 ft 267 kts 323°
2026-04-23 04:25 38.51895 -121.58590 7335 ft 267 kts 323°
2026-04-23 04:25 38.53345 -121.60049 7042 ft 266 kts 323°
2026-04-23 04:26 38.54793 -121.61506 6752 ft 264 kts 323°
2026-04-23 04:26 38.56240 -121.62964 6457 ft 263 kts 323°
2026-04-23 04:26 38.57668 -121.64399 6170 ft 263 kts 325°
2026-04-23 04:26 38.59306 -121.65356 5919 ft 254 kts 343°
2026-04-23 04:27 38.60960 -121.66001 5644 ft 246 kts 343°
2026-04-23 04:27 38.62588 -121.66631 5370 ft 238 kts 343°
2026-04-23 04:27 38.64132 -121.67227 5115 ft 231 kts 343°
2026-04-23 04:28 38.67140 -121.68386 4616 ft 218 kts 343°
2026-04-23 04:28 38.68563 -121.68935 4378 ft 213 kts 343°
2026-04-23 04:28 38.69989 -121.69483 4150 ft 212 kts 343°
2026-04-23 04:28 38.71414 -121.70033 3998 ft 211 kts 343°
2026-04-23 04:29 38.72828 -121.70575 3988 ft 213 kts 344°
2026-04-23 04:29 38.74253 -121.71118 3985 ft 215 kts 344°
2026-04-23 04:29 38.75672 -121.71655 3982 ft 215 kts 344°
2026-04-23 04:29 38.77111 -121.72193 3981 ft 214 kts 347°
2026-04-23 04:30 38.78605 -121.72331 3993 ft 215 kts
2026-04-23 04:30 38.80100 -121.72295 3984 ft 215 kts
2026-04-23 04:30 38.81583 -121.72254 3918 ft 207 kts
2026-04-23 04:30 38.83014 -121.72218 3582 ft 207 kts
2026-04-23 04:31 38.84468 -121.72179 3190 ft 210 kts
2026-04-23 04:31 38.85815 -121.71552 2758 ft 214 kts 43°
2026-04-23 04:31 38.86534 -121.69898 2388 ft 216 kts 71°
2026-04-23 04:31 38.87222 -121.68248 2060 ft 214 kts 37°
2026-04-23 04:32 38.88512 -121.67320 2015 ft 211 kts 39°
2026-04-23 04:32 38.89287 -121.65756 2016 ft 213 kts 75°
2026-04-23 04:32 38.89231 -121.63860 2009 ft 217 kts 106°
2026-04-23 04:32 38.88525 -121.62154 1999 ft 219 kts 122°
2026-04-23 04:33 38.87535 -121.60681 1984 ft 221 kts 142°
2026-04-23 04:33 38.86244 -121.59582 1989 ft 222 kts 146°
2026-04-23 04:33 38.84959 -121.58531 1973 ft 221 kts 146°
2026-04-23 04:33 38.83846 -121.57205 1955 ft 217 kts 112°
2026-04-23 04:34 38.83708 -121.55360 2001 ft 212 kts 69°
2026-04-23 04:34 38.84611 -121.53925 2055 ft 211 kts 25°
2026-04-23 04:34 38.86018 -121.53447 2105 ft 211 kts 10°
2026-04-23 04:34 38.87458 -121.53512 2094 ft 212 kts 335°
2026-04-23 04:35 38.88629 -121.54688 2139 ft 213 kts 316°
2026-04-23 04:35 38.89664 -121.56053 2128 ft 214 kts 313°
2026-04-23 04:35 38.90229 -121.57764 2126 ft 217 kts 270°
2026-04-23 04:35 38.89702 -121.59579 2177 ft 221 kts 226°
2026-04-23 04:36 38.88359 -121.60472 2228 ft 224 kts 186°
2026-04-23 04:36 38.86791 -121.60583 2255 ft 224 kts 181°
2026-04-23 04:36 38.85256 -121.60427 2238 ft 224 kts 163°
2026-04-23 04:36 38.83780 -121.59776 2237 ft 222 kts 162°
2026-04-23 04:37 38.82251 -121.59747 2275 ft 214 kts 188°
2026-04-23 04:37 38.80785 -121.59908 2059 ft 207 kts 181°